Location: Richmond
(37.5536°N, 77.4606°W)
Time: 19:08:56
(UTC-05:00)

ISS - Visible Passes

Search period start: 21 November 2014 00:00
Search period end: 01 December 2014 00:00
Orbit: 408 x 417 km, 51.6° (Epoch: 21 November)

Date Brightness Start Highest point End Pass type
(mag) Time Alt. Az. Time Alt. Az. Time Alt. Az.
22 Nov -0.8 06:08:21 10° NNW 06:10:10 14° NNE 06:12:00 10° NE visible
23 Nov -0.6 05:19:38 10° N 05:20:12 11° NNE 05:20:56 10° NNE visible
24 Nov -1.5 06:04:54 10° NNW 06:07:43 25° NNE 06:10:32 10° E visible
25 Nov -1.1 05:17:08 17° N 05:17:45 17° NNE 05:20:02 10° ENE visible
26 Nov -3.0 06:02:17 15° NW 06:04:50 62° NE 06:08:06 10° ESE visible
27 Nov -2.1 05:14:37 34° NNE 05:14:53 34° NNE 05:17:56 10° ESE visible
28 Nov 0.0 04:26:58 13° ENE 04:26:58 13° ENE 04:27:26 10° E visible
28 Nov -2.7 05:59:48 22° WNW 06:01:32 42° SW 06:04:39 10° SSE visible
29 Nov -2.8 05:12:10 57° SE 05:12:10 57° SE 05:14:52 10° SE visible
30 Nov 0.2 04:24:34 11° ESE 04:24:34 11° ESE 04:24:41 10° ESE visible
30 Nov -1.3 05:57:23 14° WSW 05:57:48 15° SW 05:59:41 10° SSW visible
